Погода в Здвинске

Погода в Здвинске : погода сейчас, прогноз погоды и архив. Всё, что Вы хотите узнать о погоде в Здвинске!

Хотите узнать прогноз погоды в Здвинске? Тогда Вам сюда: Погода в Здвинске

Поиск расширенной информации на нашем сайте:

Полезная информация: трубы 25 мм хром

Другие новости

Новости СМИ2

Главная страница сайта

Новости сайта

03.07.2017

Напоминаем, что на нашем специализированном сайте Метеоцентр.Азия вы можете получить высокодетализированные автоматические прогнозы погоды по пунктам России, СНГ и мира в авиационном формате (включающие направление и скорость ветра, видимость, явления погоды, количество и форму облачности, нижнюю и верхнюю границу облачности).

Рекомендуем: Стойка для печатной продукции

Погода в Здвинске - сегодня

Время (UTC), дата Ветер
(°,м/с) 
Видим.   Явления Облачность Т
(°С)
Тd
(°С)
f(%) Тe
(°С)
Pmin
(гПа)
dP
(гПа)
Po
(мм)
O2
(г/м3)
Тmin Tmax R s Состояние
почвы
12 16.04.18 240 (ЮЗ) 6-10{13}  20000 м  {ливн. осадки}  9/3 600 м кучево-дожд., средняя 
[Cb cap|Ac As]
+7.6 +1 63 +6  1001.6  -0.4  741  290    +8.1     
15 16.04.18 270 (З) 4{15}  20000 м    9/0 средняя 
[Ac As]
+1.7 -1.6 79 1006  4.1  744  298           
18 16.04.18 250 (З) 20000 м    4/0 средняя 
[Ac As]
-0.5 -2.9 84 -2  1007.6  1.5  745  301           
00 17.04.18 250 (З) 20000 м    3/0 средняя 
[Ac As]
-2.7 -5.1 84 -5  1010.8  1.5  747  305  -2.7         
12 17.04.18 300 (СЗ) 5{11}  20000 м    8/5 1000 м средняя 
[Sc|Ac As]
+0.4 -11.8 39 -3  1017.9  1.3  753  304    +1.8       
15 17.04.18 290 (З) 20000 м    3/0 средняя 
[Ac As]
-2.9 -9.1 62 -2  1019.2  1.1  754  308           
18 17.04.18 220 (ЮЗ) 20000 м    ясно 
-5.7 -8.4 81 -5  1020.5  1.2  754  311           
21 17.04.18 тихо ()   20000 м    4/0 средняя 
[Ac As]
-5.7 -7.4 88 -6  1021.1  0.6  755  311           
00 18.04.18 150 (ЮВ) 20000 м    8/0 средняя 
[Ac As]
-6 -7.6 88 -6  1021.8  0.7  755  312  -6.6         
03 18.04.18 140 (ЮВ) 20000 м    3/0 средняя 
[Ac As]
-0.5 -11.8 42 1022.8  1.2  756  306           
06 18.04.18 110 (В) 20000 м    8/0 средняя 
[Ac As]
+1.4 -12 36 +2  1023  0.3  757  304           
09 18.04.18 290 (З) 20000 м    10/0 средняя 
[Ac As]
+2.2 -8.5 45 +3  1022.1  -0.8  756  303           
12 18.04.18 140 (ЮВ) 20000 м    8/3 600 м кучево-дожд., средняя 
[Cb cap|Ac As]
+2.3 -8.5 45 +3  1021.4  -0.7  755  303    +3       
15 18.04.18 180 (Ю) 20000 м    10/5 600 м кучево-дожд., средняя 
[Cb cap|Ac As]
+0.7 -5.7 62 +1  1022  0.5  756  304           
18 18.04.18 040 (СВ) 20000 м    10/0 средняя 
[Ac As]
-1.4 -2.9 89 -2  1021.5  -0.6  755  306           
21 18.04.18 070 (В) 20000 м  {ливн. осадки}  10/6 600 м кучево-дожд., средняя 
[Cb cap|Ac As]
-1.7 -3.5 87 -3  1020.2  -1.3  754  306           
00 19.04.18 130 (ЮВ) 20000 м  {ливн. осадки}  10/8 600 м кучево-дожд., средняя 
[Cb cap|Ac As]
-1.3 -6 70 -2  1018.6  -1.5  753  306  -2.3    0.0     
03 19.04.18 150 (ЮВ) 20000 м    6/6 600 м 
[Cu med, cong]
+2.1 -6.8 52 +1  1017.9  -0.5  753  302           
06 19.04.18 230 (ЮЗ) 20000 м    8/3 600 м средняя, верхняя 
[Cu hum|Ac As|Ci sp]
+5.6 -6.7 41 +5  1017.1  -0.7  752  298           
09 19.04.18 280 (З) 20000 м    8/8 600 м кучево-дожд. 
[Cb cap]
+7.4 -6.1 38 +6  1016  -1  752  295           
12 19.04.18 280 (З) 20000 м    3/3 600 м кучево-дожд. 
[Cb cap]
+5.5 -5.2 46 +4  1016.7  0.6  752  298    +7.9       
15 19.04.18 270 (З) 20000 м    10/0 средняя 
[Ac As]
+0.1 -6.9 59 -1  1018.5  1.5  753  304           
18 19.04.18 240 (ЮЗ) 20000 м    3/0 средняя 
[Ac As]
-2.3 -7.2 69 -3  1019  0.4  753  307           
21 19.04.18 200 (Ю) 20000 м    ясно 
-2.5 -7.4 69 -5  1019.2  0.2  754  307           
00 20.04.18 190 (Ю) 20000 м    3/3 600 м 
[Sc]
-1.8 -6.9 68 -4  1018.9  -0.3  753  306  -3         
Время (UTC), дата Ветер
(°,м/с) 
Видим.   Явления Облачность Т
(°С)
Тd
(°С)
f(%) Тe
(°С)
Pmin
(гПа)
dP
(гПа)
Po
(мм)
O2
(г/м3)
Тmin Tmax R s Состояние
почвы

Для получения пояснительной информации подведите курсор к названию столбца.

ПОГОДА в Здвинске - архив

Всё, что Вы хотите узнать о погоде в Здвинске - удобно и подробно!

Выберите нужную дату (начиная с 1 января 2015* года) и нажмите кнопку "Найти".
Будут отображены архивные сводки погоды по пункту Здвинск, начиная с указанной даты.


Отображать данные в формате CSV (для использования в таблицах Excel)


Внимание! Наш архив погоды предназначен исключительно для личного некоммерческого использования в познавательных целях. Если Вам необходимы официальные справки о состоянии погоды (для производственных, юридических, коммерческих и т.п. целей), обращайтесь в органы Росгидромета.

*Примечание: данная дата относится к архиву по метеостанциям СССР (Россия, СНГ, Балтия).
Архив по метеостанциям Зарубежной Европы и Азии (кроме Китая) хранится 10 дней, по другим регионам земного шара (Китай, Африка, Америка, Австралия, Океания) - 1 день.

Здвинск - район местоположения метеостанции


Название, широта, долгота, высота метеостанции:
Здвинск 54.7°ш. 78.7°д. 113 м над ур. моря [Российская Федерация]

Дополнительная информация

В oтличие oт бoльшинства пoгoдных сайтoв мы публикуем пoдрoбную метеoинфoрмацию в детальнoм прoфессиoнальнoм фoрмате.

Характеристики температуры и влажнoсти вoздуха измеряются на высoте 2 м в тени вдали oт зданий и деревьев.
Скoрoсть ветра измеряется на высoте 10 м (на урoвне рoста челoвека скoрoсть ветра ниже в 1.5-2 раза). Если метеoстанция нахoдится в гoрoде или в лесу, тo скoрoсть ветра занижена на 2-4 м/с пo сравнению с oткрытым местoм. Скoрoсть ветра над акватoриями крупных рек и oзёр, а также на вершинах хoлмoв на 2-5 м/с выше, чем в oбычных услoвиях.
Атмoсфернoе давление в разных тoчках местнoсти мoжет значительнo oтличаться oт давления на метеoстанции, в зависимoсти oт услoвий рельефа (при пoдъёме на 10 м давление пoнижается примернo на 1 мм рт.ст.).